#timestamp,LO_Frequency,Hit,StdDev 
1561057215.4,286047002.7,N
1561057235.2,286047000.4,N
1561057255.1,286046998.6,N
1561057256.0,286046998.6,N
1561057275.8,286046998.6,N
1561057295.6,286046998.8,N
1561057315.5,286046998.7,N
1561057335.3,286046998.8,N
1561057355.1,286046998.8,N
1561057375.9,286046998.9,N
1561057395.7,286046998.8,N
1561057415.6,286046999.3,N
1561057435.4,286046999.2,N
1561057455.2,286046999.5,N
1561057475.1,286046997.4,N
1561057476.0,286046997.4,N
1561057495.8,286046996.6,N
1561057515.7,286046996.8,N
1561057535.5,286046997.0,N
1561057555.3,286046997.8,N
1561057575.2,286046997.4,N
1561057595.9,286046997.5,N
1561057615.7,286046995.3,N
1561057635.6,286046995.1,N
1561057655.4,286046995.1,N
1561057675.2,286046995.3,N
1561057695.1,286046995.1,N
1561057696.0,286046995.1,N
1561057715.8,286046996.2,N
1561057735.7,286046995.6,N
1561057755.5,286046995.1,N
1561057775.3,286046994.9,Y
1561057795.2,286046998.5,P
1561057815.0,286047001.0,N
1561057815.9,286047001.0,N
1561057835.8,286046998.6,N
1561057855.6,286046998.1,N
1561057875.4,286046998.1,N
1561057895.3,286046998.7,N
1561057915.1,286047000.8,N
1561057935.9,286047000.9,N
1561057955.7,286047000.2,N
1561057975.5,286047000.8,N
1561057995.4,286047000.8,N
1561058015.2,286047000.7,N
1561058035.0,286047002.7,N
1561058035.9,286047002.7,N
1561058055.8,286047000.1,N
1561058075.6,286046999.9,N
1561058095.5,286046999.7,N
1561058115.3,286047001.8,N
1561058135.1,286047002.3,N
1561058155.9,286047002.1,N
1561058175.7,286046999.8,N
1561058195.5,286047000.4,N
1561058215.4,286046999.7,N
1561058235.2,286046999.8,N
1561058255.1,286047002.7,N
1561058256.0,286047002.7,N
1561058275.8,286046999.7,N
1561058295.6,286047000.2,N
1561058315.5,286047000.0,N
1561058335.3,286047000.6,N
1561058355.1,286047002.6,N
1561058375.9,286047002.1,N
1561058395.7,286047002.4,N
1561058415.6,286047002.3,N
1561058435.4,286047000.2,N
1561058455.2,286047000.0,N
1561058475.1,286047002.6,N
1561058476.0,286047002.6,N
1561058495.8,286047002.8,N
1561058515.6,286047002.3,N
1561058535.5,286047002.6,N
1561058555.3,286047002.5,N
1561058575.2,286047002.3,N
1561058595.9,286046999.7,N
1561058615.7,286047001.6,N
1561058635.6,286047004.4,Y
1561058655.4,286047002.7,P
1561058675.2,286047000.2,N
1561058695.1,286046999.9,N
1561058696.0,286047011.9,Y
1561058715.8,286047000.9,P
1561058735.7,286047000.6,P
1561058755.5,286047000.5,N
1561058775.3,286047000.2,N
1561058795.2,286046999.9,N
1561058815.0,286046999.8,N
1561058815.9,286046999.8,N
1561058835.8,286047001.1,N
1561058855.6,286046998.3,Y
1561058875.4,286047000.4,P
1561058895.3,286047000.7,P
1561058915.1,286047000.8,P
1561058935.9,286047002.4,Y
1561058955.7,286047000.8,P
1561058975.5,286047001.2,P
1561058995.4,286047000.9,P
1561059015.2,286047002.2,Y
1561059035.0,286046999.8,P
1561059036.0,286046999.8,N
1561059055.8,286047000.8,N
1561059075.6,286046998.1,Y
1561059095.5,286047000.7,P
1561059115.3,286047001.1,P
1561059135.1,286047000.6,N
1561059155.9,286047000.6,N
1561059175.7,286047000.6,N
1561059195.6,286046998.1,Y
1561059215.4,286046999.6,P
1561059235.2,286046998.8,N
1561059255.1,286047001.1,N
1561059256.0,286047001.1,N
1561059275.8,286046998.9,N
1561059295.7,286046997.1,Y
1561059315.5,286046996.9,P
1561059335.3,286046997.9,N
1561059355.2,286046997.1,N
1561059375.0,286046997.6,N
1561059375.9,286046997.6,N
1561059395.8,286046999.5,N
1561059415.6,286046996.5,Y
1561059435.4,286046999.9,P
1561059455.3,286046999.9,N
1561059475.1,286047000.2,N
1561059495.8,286047000.2,N
1561059515.7,286046999.9,N
1561059535.5,286047002.7,Y
1561059555.4,286047000.9,P
1561059575.2,286047000.4,N
1561059595.0,286047000.7,N
1561059595.9,286047000.7,N
1561059615.8,286046998.5,Y
1561059635.6,286046998.7,P
1561059655.5,286047000.6,N
1561059675.3,286046999.4,N
1561059695.1,286046999.0,N
1561059715.9,286046996.5,Y
1561059735.7,286046998.4,P
1561059755.5,286046998.9,N
1561059775.4,286046998.6,N
1561059795.2,286047001.2,N
1561059815.1,286047000.9,N
1561059816.0,286047000.9,N
1561059835.8,286047000.6,N
1561059855.6,286047000.6,N
1561059875.5,286046999.9,N
1561059895.3,286047002.5,N
1561059915.1,286047001.5,N
1561059935.9,286047002.5,N
1561059955.7,286047002.3,N
1561059975.6,286047001.4,N
1561059995.4,286047001.5,N
1561060015.2,286047002.0,N
1561060035.1,286047002.0,N
1561060036.0,286047002.0,N
1561060055.8,286047003.3,N
1561060075.7,286047003.0,N
1561060095.5,286047004.2,Y
1561060115.3,286047002.7,P
1561060135.2,286046999.7,N
1561060155.0,286047002.4,N
1561060155.9,286047002.4,N
1561060175.7,286046999.7,N
1561060195.6,286047002.8,N
1561060215.8,286047000.5,N
1561060235.7,286046999.7,N
1561060255.5,286046999.9,N
1561060275.3,286046998.3,N
1561060295.2,286046998.3,N
1561060315.0,286046999.3,N
1561060315.9,286046999.3,N
1561060335.7,286046999.0,N
1561060355.6,286046999.2,N
1561060375.4,286046998.8,N
1561060395.3,286046996.5,N
1561060415.1,286046998.8,N
1561060416.0,286046998.8,N
1561060435.8,286046998.3,N
1561060455.7,286046998.8,N
1561060475.5,286046999.3,N
1561060495.3,286046997.1,N
1561060515.2,286046997.8,N
1561060535.0,286046997.8,N
1561060535.9,286046997.8,N
1561060555.8,286046997.5,N
1561060575.6,286046997.6,N
1561060595.4,286046997.1,N
1561060615.3,286046997.0,N
1561060635.1,286046997.4,N
1561060655.9,286046997.7,N
1561060675.7,286046997.2,N
1561060695.5,286046997.5,N
1561060715.4,286046997.8,N
1561060735.2,286046997.7,N
1561060755.0,286046997.7,N
1561060755.9,286046997.7,N
1561060775.8,286046996.8,Y
1561060795.6,286046998.7,P
